Tracking 17267 objects as of 31-August-2015
HD Live streaming from Space Station

METEOSAT 5 AKM

Track METEOSAT 5 AKM now!
METEOSAT 5 AKM is classified as:


NORAD ID: 21904
Int'l Code: 1991-015E
Perigee: 35,148.0 km
Apogee: 36,520.8 km
Inclination: 14.3 °
Period: 1,438.2 minutes
Semi major axis: 42205 km
RCS: 0.9471 m2 (medium)
Launch date: March 2, 1991
Source: European Space Agency (ESA)

Note: This is a ROCKET BODY
Your satellite tracking list
Your tracking list is empty





NASA's NSSDC Master Catalog

Two Line Element Set (TLE):
1 21904U 91015E   15241.48582836 -.00000320  00000-0  00000+0 0  9994
2 21904 014.3189 012.1254 0162630 130.0291 295.8227 01.00126809 76985

Source of the keplerian elements: AFSPC

N2YO: 285